Weather History for Kecskemet, Hungary

Change the Weather History Date:

Sunday, September 9, 2012

  Actual Average (LHBP) Record (LHBP)
Temperature  
Mean Temperature 68 °F -  
Max Temperature 80 °F 70 °F 84 °F (2002)
Min Temperature 55 °F 50 °F 41 °F (2004)
Cooling Degree Days 2    
Growing Degree Days 18 (Base 50)    
Moisture  
Dew Point 51 °F    
Average Humidity 60    
Maximum Humidity 88    
Minimum Humidity 28    
Precipitation  
Precipitation 0.00 in - - ()
Sea Level Pressure  
Sea Level Pressure 30.11 in    
Wind  
Wind Speed 3 mph ()    
Max Wind Speed 7 mph    
Max Gust Speed -    
Averages and records for this station are not official NWS values.
T = Trace of Precipitation, MM = Missing Value Source: Averaged Metar Reports

Daily Weather History Graph

Daily Weather History Graph

Search for Another Location

Airport:

Trip Planner

Search our weather history database for the weather conditions in past years. The results will help you decide how hot, cold, wet, or windy it might be!

Date:

Astronomy

Sep. 09, 2012 Rise Set
Actual Time 6:11 AM CEST 7:04 PM CEST
Civil Twilight 5:40 AM CEST 7:35 PM CEST
Nautical Twilight 5:03 AM CEST 8:11 PM CEST
Astronomical Twilight 4:24 AM CEST 8:50 PM CEST
Moon No Moon Rise 2:52 PM CEST (9/9)
Length of Visible Light 13h 54m
Length of Day
12h 53m
Last Quarter, 42% of the Moon is Illuminated
Sep 9
Last Quarter
Sep 16
New
Sep 22
First Quarter
Sep 30
Full
Oct 8
Last Quarter

Hourly Weather History & Observations

Time (CEST) Temp. Dew Point Humidity Pressure Visibility Wind Dir Wind Speed Gust Speed Precip Events Conditions
12:15 AM 59.0 °F 51.8 °F 77% 30.09 in - WNW 4.5 mph - N/A   Clear
12:45 AM 60.8 °F 51.8 °F 72% 30.09 in - WNW 2.2 mph - N/A   Clear
1:15 AM 59.0 °F 51.8 °F 77% 30.09 in - WNW 4.5 mph - N/A   Clear
1:45 AM 59.0 °F 51.8 °F 77% 30.09 in - West 2.2 mph - N/A   Clear
2:15 AM 57.2 °F 51.8 °F 82% 30.09 in - WNW 2.2 mph - N/A   Clear
2:45 AM 57.2 °F 51.8 °F 82% 30.09 in - West 2.2 mph - N/A   Clear
3:15 AM 55.4 °F 51.8 °F 88% 30.09 in - West 6.7 mph - N/A   Clear
3:45 AM 55.4 °F 51.8 °F 88% 30.09 in - West 4.5 mph - N/A   Clear
4:15 AM 55.4 °F 51.8 °F 88% 30.09 in - West 4.5 mph - N/A   Clear
4:45 AM 55.4 °F 51.8 °F 88% 30.09 in - WNW 4.5 mph - N/A   Clear
5:15 AM 55.4 °F 51.8 °F 88% 30.09 in - WNW 6.7 mph - N/A   Clear
6:15 AM 55.4 °F 51.8 °F 88% 30.12 in - West 2.2 mph - N/A   Clear
6:45 AM 55.4 °F 51.8 °F 88% 30.12 in - WNW 4.5 mph - N/A   Clear
7:15 AM 59.0 °F 51.8 °F 77% 30.12 in - East 2.2 mph - N/A   Clear
7:45 AM 60.8 °F 53.6 °F 77% 30.12 in - Calm Calm - N/A   Clear
8:15 AM 64.4 °F 53.6 °F 68% 30.12 in - North 2.2 mph - N/A   Clear
8:45 AM 66.2 °F 51.8 °F 60% 30.15 in - North 2.2 mph - N/A   Clear
9:15 AM 69.8 °F 53.6 °F 56% 30.15 in - North 6.7 mph - N/A   Clear
9:45 AM - - N/A% - - Variable 4.5 mph - N/A   Clear
10:15 AM 73.4 °F 51.8 °F 47% 30.15 in - NNE 4.5 mph - N/A   Clear
11:15 AM 77.0 °F 51.8 °F 41% 30.15 in - NNE 4.5 mph - N/A   Clear
11:45 AM 77.0 °F 48.2 °F 36% 30.15 in - NE 4.5 mph - N/A   Clear
12:15 PM 78.8 °F 50.0 °F 36% 30.15 in - NE 4.5 mph - N/A   Clear
12:45 PM - - N/A% - - Variable 4.5 mph - N/A   Clear
1:15 PM 78.8 °F 46.4 °F 32% 30.12 in - Variable 2.2 mph - N/A   Clear
1:45 PM 78.8 °F 46.4 °F 32% 30.12 in - North 2.2 mph - N/A   Clear
2:15 PM 78.8 °F 46.4 °F 32% 30.12 in - ENE 2.2 mph - N/A   Clear
2:45 PM 80.6 °F 46.4 °F 30% 30.12 in - ENE 4.5 mph - N/A   Clear
3:15 PM 80.6 °F 46.4 °F 30% 30.12 in - Calm Calm - N/A   Clear
3:45 PM - - N/A% - - Variable 4.5 mph - N/A   Clear
4:15 PM 80.6 °F 46.4 °F 30% 30.09 in - NE 2.2 mph - N/A   Clear
4:45 PM 80.6 °F 44.6 °F 28% 30.09 in - North 2.2 mph - N/A   Clear
5:15 PM 80.6 °F 46.4 °F 30% 30.09 in - Calm Calm - N/A   Clear
5:45 PM 80.6 °F 44.6 °F 28% 30.09 in - North 2.2 mph - N/A   Clear
6:15 PM 78.8 °F 50.0 °F 36% 30.09 in - NNE 2.2 mph - N/A   Clear
6:45 PM - - N/A% - - Variable 4.5 mph - N/A   Clear
7:15 PM 71.6 °F 53.6 °F 53% 30.09 in - East 2.2 mph - N/A   Clear
7:45 PM 68.0 °F 53.6 °F 60% 30.09 in - ENE 2.2 mph - N/A   Clear
8:15 PM 68.0 °F 53.6 °F 60% 30.09 in - East 2.2 mph - N/A   Clear
8:45 PM 68.0 °F 53.6 °F 60% 30.12 in - East 2.2 mph - N/A   Clear
9:15 PM 66.2 °F 53.6 °F 64% 30.12 in - Calm Calm - N/A   Clear
9:45 PM 64.4 °F 53.6 °F 68% 30.12 in - Calm Calm - N/A   Clear
10:15 PM 64.4 °F 51.8 °F 64% 30.12 in - ESE 2.2 mph - N/A   Clear
10:45 PM 66.2 °F 51.8 °F 60% 30.12 in - ESE 2.2 mph - N/A   Clear
11:15 PM 64.4 °F 51.8 °F 64% 30.12 in - ESE 2.2 mph - N/A   Clear
11:45 PM 60.8 °F 51.8 °F 72% 30.12 in - East 2.2 mph - N/A   Clear